Temp
5 5 5 6 6 6 6 6 7 7 7 7 7 7 7 7 7 7 7 7 8 8 8 8 8 8 8 8 10 7 8 8 7 6 7 7 7 7 6 7 6 4 6 6 7 6 6
5 5 6 6 6 6 7 7 7 7 7 7 7 7 8 7 7 7 6 6 6 7 7 7 7 7 7 8 8 8 8 7 7 6 6 7 6 6 5 4 5 4 4 5 4 5 5
6 6 5 6 6 6 6 6 7 7 8 8 7 7 7 6 6 6 6 7 6 6 7 7 7 7 8 8 7 8 8 7 6 6 5 6 5 4 4 3 4 4 2 3 4 5 5
5 5 5 6 6 6 6 7 7 7 7 7 7 7 6 6 7 7 6 7 7 7 7 7 7 7 8 8 8 7 7 7 6 5 4 4 3 3 2 3 2 2 2 2 5 4 5
5 5 5 6 6 6 6 7 7 7 7 6 6 6 6 7 7 8 7 7 7 8 8 7 7 8 8 8 8 7 6 6 5 5 3 2 2 2 1 -0 0 1 1 3 3 3 4
5 5 5 5 6 6 7 7 6 6 6 6 6 6 6 6 7 7 7 7 7 7 8 7 7 7 7 7 6 5 5 4 4 4 3 3 2 1 0 -1 -0 0 1 1 1 2 4
5 5 5 5 6 6 6 6 6 6 6 6 6 6 6 6 6 7 6 6 7 6 7 6 6 6 5 4 5 5 3 2 2 2 2 3 1 1 3 3 3 2 0 1 1 2 3
5 5 5 6 6 6 6 5 5 5 5 5 6 6 6 6 6 7 7 6 7 6 9 6 6 5 4 4 4 4 3 1 0 1 1 -0 2 2 1 1 1 0 0 1 1 1 1
4 5 5 5 5 5 5 5 5 5 5 6 6 6 6 6 6 6 6 6 6 5 5 5 3 3 3 2 2 2 0 -1 -1 -2 -1 -0 1 1 0 0 -1 -1 -1 -0 1 0 1
4 4 5 5 5 5 5 5 5 5 5 5 5 5 6 5 6 5 5 5 4 3 3 2 1 -1 -1 -1 -0 -1 -1 -2 -3 -2 -3 -3 -2 -1 -1 -2 -2 -2 0 0 -0 -1 -1
4 4 4 5 4 4 4 4 5 5 5 5 5 5 5 5 5 4 4 3 3 0 -3 -0 -2 -3 -4 -3 -3 -4 -4 -4 -3 -3 -4 -3 -3 -2 -2 -1 -2 -1 -2 -1 -1 -1 -1
4 4 4 4 4 4 4 4 4 4 4 4 4 4 4 3 3 2 2 1 -0 -1 -6 -2 -4 -4 -3 -3 -4 -4 -4 -5 -5 -5 -5 -4 -3 -3 -2 -2 -2 -3 -2 -2 -1 -1 -3
4 4 4 4 4 4 4 4 4 3 3 3 3 2 2 1 0 0 -0 -1 -2 -4 -4 -7 -6 -7 -7 -6 -6 -6 -6 -6 -6 -6 -7 -5 -4 -3 -3 -4 -3 -3 -4 -3 -2 -3 -2
3 3 3 3 3 3 3 3 3 2 2 1 1 0 -0 -2 -2 -2 -2 -3 -5 -8 -8 -9 -9 -8 -7 -8 -8 -8 -8 -7 -8 -8 -9 -9 -7 -5 -5 -6 -6 -4 -3 -3 -3 -2 -2
3 3 3 3 3 2 2 2 1 0 -1 -1 -2 -2 -3 -3 -4 -4 -5 -6 -9 -10 -10 -10 -9 -9 -9 -8 -9 -9 -9 -8 -9 -9 -10 -10 -8 -6 -6 -6 -6 -5 -4 -2 -3 -1 -4
3 2 2 2 2 2 1 0 -1 -2 -3 -3 -4 -4 -5 -6 -6 -6 -6 -8 -9 -9 -10 -10 -10 -10 -10 -10 -10 -10 -10 -8 -9 -10 -10 -10 -10 -8 -7 -6 -6 -6 -6 -5 -4 -4 -3
2 2 2 2 1 0 -1 -2 -3 -4 -5 -5 -5 -5 -6 -7 -7 -7 -8 -9 -9 -9 -10 -11 -11 -11 -11 -11 -11 -11 -10 -9 -9 -10 -10 -10 -10 -9 -8 -7 -8 -6 -7 -7 -7 -5 -4
2 1 1 1 -1 -2 -3 -3 -4 -5 -5 -6 -6 -6 -6 -7 -7 -8 -9 -9 -10 -9 -10 -10 -11 -11 -11 -11 -11 -11 -10 -10 -10 -10 -11 -11 -11 -11 -9 -8 -7 -9 -9 -9 -9 -8 -8
1 1 -0 -1 -3 -3 -4 -5 -5 -5 -6 -6 -6 -7 -7 -8 -8 -9 -9 -9 -10 -10 -10 -11 -11 -12 -12 -11 -12 -11 -11 -10 -11 -11 -11 -11 -11 -11 -10 -8 -8 -9 -9 -9 -9 -9 -9
0 -1 -2 -3 -4 -4 -5 -5 -6 -6 -6 -6 -7 -7 -8 -8 -9 -10 -9 -9 -10 -11 -11 -11 -11 -12 -12 -11 -12 -11 -11 -11 -11 -10 -10 -11 -11 -11 -12 -10 -11 -11 -11 -10 -9 -9 -11
-1 -2 -4 -4 -5 -5 -5 -6 -6 -6 -6 -7 -7 -8 -8 -8 -9 -10 -11 -10 -11 -12 -11 -11 -12 -12 -12 -12 -12 -12 -11 -10 -10 -11 -11 -12 -12 -11 -11 -11 -11 -12 -12 -11 -11 -12 -13
-3 -4 -4 -5 -5 -6 -6 -6 -6 -7 -7 -7 -8 -8 -8 -8 -9 -10 -11 -12 -12 -12 -13 -12 -12 -12 -12 -12 -13 -12 -12 -11 -11 -11 -12 -13 -12 -12 -11 -10 -12 -14 -15 -14 -15 -16 -17
-4 -5 -5 -5 -6 -6 -6 -7 -7 -7 -7 -8 -9 -9 -9 -9 -9 -10 -11 -12 -12 -12 -12 -13 -13 -12 -12 -12 -12 -11 -11 -11 -11 -12 -11 -12 -12 -12 -11 -11 -11 -15 -19 -18 -18 -17 -18
-5 -5 -5 -6 -6 -6 -7 -7 -7 -8 -8 -9 -9 -10 -10 -10 -10 -11 -12 -12 -12 -12 -12 -12 -13 -13 -12 -12 -11 -10 -10 -10 -10 -11 -11 -11 -11 -11 -11 -11 -14 -20 -20 -19 -18 -19 -20
-6 -6 -6 -6 -7 -7 -7 -8 -8 -9 -9 -9 -10 -11 -12 -12 -12 -11 -12 -12 -12 -12 -13 -12 -12 -13 -12 -12 -11 -11 -10 -11 -11 -11 -11 -11 -11 -11 -12 -19 -20 -20 -20 -20 -19 -20 -20
-6 -6 -6 -7 -7 -7 -8 -8 -9 -9 -10 -10 -11 -12 -12 -13 -12 -13 -12 -12 -12 -12 -12 -13 -13 -13 -13 -13 -12 -13 -12 -12 -11 -12 -12 -12 -12 -12 -12 -14 -18 -21 -21 -20 -21 -21 -20
-6 -7 -7 -7 -8 -8 -8 -8 -9 -9 -10 -10 -11 -12 -13 -13 -12 -12 -13 -13 -13 -13 -13 -13 -13 -13 -14 -14 -13 -13 -13 -14 -14 -15 -15 -13 -13 -15 -16 -20 -22 -20 -20 -20 -21 -22 -22
-7 -7 -7 -8 -8 -8 -8 -9 -9 -10 -10 -10 -11 -12 -13 -14 -13 -13 -13 -14 -14 -14 -14 -14 -14 -14 -15 -14 -15 -15 -15 -15 -16 -18 -19 -19 -19 -20 -20 -21 -22 -21 -21 -21 -24 -24 -24
-7 -7 -8 -8 -8 -8 -9 -9 -10 -10 -10 -11 -11 -13 -14 -14 -14 -14 -15 -15 -15 -15 -15 -15 -16 -16 -16 -16 -16 -16 -16 -16 -18 -19 -20 -21 -21 -22 -21 -24 -24 -23 -23 -24 -24 -25 -24
Height
3138 3136 3133 3131 3129 3126 3123 3120 3117 3113 3109 3105 3101 3097 3093 3089 3085 3081 3078 3076 3073 3070 3067 3064 3060 3055 3052 3049 3050 3046 3044 3043 3042 3042 3042 3041 3041 3042 3040 3043 3045 3034 3038 3040 3043 3042 3044
3136 3134 3131 3129 3127 3124 3121 3117 3113 3109 3105 3100 3096 3092 3087 3082 3078 3074 3071 3068 3065 3062 3058 3055 3051 3048 3045 3042 3041 3040 3037 3037 3036 3036 3037 3035 3035 3039 3037 3036 3037 3031 3031 3032 3033 3033 3034
3135 3132 3129 3126 3124 3122 3118 3114 3110 3106 3102 3098 3093 3088 3084 3080 3075 3071 3066 3063 3059 3055 3051 3047 3043 3039 3037 3039 3029 3031 3031 3029 3028 3028 3029 3031 3032 3030 3029 3030 3029 3025 3022 3024 3021 3024 3023
3134 3131 3128 3124 3121 3119 3116 3112 3108 3103 3098 3093 3089 3085 3081 3076 3071 3067 3062 3058 3054 3050 3046 3041 3036 3032 3027 3026 3021 3020 3020 3020 3019 3020 3022 3023 3024 3022 3019 3022 3019 3018 3015 3011 3010 3016 3018
3132 3129 3126 3122 3120 3117 3113 3109 3105 3099 3094 3090 3085 3081 3077 3072 3068 3064 3059 3054 3050 3045 3040 3034 3029 3024 3020 3017 3017 3014 3014 3015 3013 3013 3013 3014 3015 3012 3014 3013 3014 3009 2999 2996 3000 3008 3014
3130 3127 3123 3120 3117 3114 3110 3105 3100 3095 3091 3087 3082 3077 3072 3067 3062 3059 3055 3049 3044 3040 3035 3028 3020 3019 3013 3010 3009 3008 3005 3005 3007 3007 3007 3008 3005 3002 3001 3006 2987 2991 2991 2990 2991 3000 3006
3128 3124 3120 3117 3114 3110 3106 3101 3097 3092 3088 3084 3078 3073 3069 3062 3056 3052 3049 3044 3040 3031 3031 3022 3016 3005 3006 3000 2996 2998 2996 2995 2995 2995 2995 2997 2994 2977 2983 2986 2986 2992 2990 2983 2987 2993 2997
3125 3121 3118 3114 3110 3106 3102 3098 3093 3088 3084 3079 3074 3069 3064 3058 3050 3043 3039 3033 3028 3023 3005 3014 3005 3000 2997 2993 2991 2990 2990 2988 2985 2984 2989 2989 2969 2977 2980 2981 2982 2983 2981 2970 2981 2988 2990
3123 3119 3115 3110 3106 3102 3098 3095 3090 3084 3079 3074 3068 3063 3059 3053 3047 3039 3033 3028 3021 3015 3007 3002 2998 2995 2993 2991 2987 2987 2984 2982 2980 2979 2979 2977 2972 2973 2972 2972 2972 2970 2967 2970 2971 2980 2979
3120 3115 3111 3107 3102 3098 3094 3091 3087 3081 3074 3068 3062 3057 3047 3049 3042 3036 3030 3023 3017 3011 3004 2999 2994 2990 2988 2984 2986 2984 2982 2981 2976 2973 2975 2969 2968 2968 2970 2962 2971 2962 2965 2967 2969 2974 2969
3116 3113 3108 3103 3099 3094 3090 3087 3083 3076 3069 3062 3056 3051 3044 3034 3032 3029 3024 3017 3012 3007 3008 2999 2993 2988 2989 2988 2982 2977 2978 2976 2972 2971 2971 2959 2962 2963 2960 2959 2965 2952 2965 2964 2964 2964 2966
3113 3109 3105 3100 3095 3090 3085 3080 3075 3070 3065 3058 3051 3044 3039 3033 3025 3021 3015 3010 3007 3006 2998 2995 2990 2985 2984 2982 2979 2976 2975 2973 2968 2962 2965 2958 2960 2959 2956 2957 2958 2957 2957 2958 2957 2957 2955
3110 3105 3101 3096 3091 3086 3081 3075 3070 3064 3058 3052 3044 3037 3031 3025 3023 3016 3009 3005 3006 3000 2999 2991 2987 2984 2985 2979 2978 2973 2969 2967 2965 2962 2957 2953 2951 2952 2952 2947 2949 2950 2952 2948 2947 2945 2934
3106 3101 3096 3092 3087 3081 3076 3071 3065 3058 3052 3046 3039 3033 3027 3022 3015 3009 3003 3000 2999 2999 2994 2991 2987 2984 2981 2976 2975 2971 2968 2966 2961 2961 2958 2953 2948 2946 2943 2946 2942 2938 2942 2938 2931 2931 2930
3102 3097 3093 3087 3082 3077 3072 3066 3059 3053 3048 3043 3036 3030 3025 3017 3011 3004 3000 2996 2999 2998 2996 2990 2985 2980 2978 2977 2974 2970 2968 2964 2960 2957 2958 2953 2949 2944 2942 2940 2940 2934 2929 2928 2928 2927 2925
3098 3093 3088 3083 3078 3073 3068 3062 3056 3050 3044 3038 3033 3026 3019 3013 3007 3003 3000 2999 3000 2997 2992 2989 2986 2981 2975 2973 2970 2970 2966 2963 2959 2957 2954 2952 2944 2941 2937 2937 2935 2931 2926 2922 2917 2913 2910
3094 3090 3085 3080 3074 3068 3063 3058 3052 3047 3042 3036 3030 3024 3018 3012 3007 3002 2998 2998 2997 2995 2990 2989 2985 2982 2976 2972 2969 2966 2962 2959 2956 2954 2952 2949 2946 2940 2936 2934 2930 2926 2921 2921 2917 2904 2898
3091 3086 3081 3075 3070 3064 3058 3053 3048 3045 3041 3034 3028 3023 3016 3011 3009 3001 3000 2997 2995 2991 2990 2985 2982 2977 2973 2970 2965 2962 2957 2955 2955 2951 2947 2946 2942 2936 2934 2929 2925 2921 2923 2926 2921 2914 2910
3087 3082 3077 3071 3066 3061 3056 3051 3046 3039 3033 3027 3024 3019 3013 3008 3003 2999 2998 2995 2992 2988 2985 2981 2979 2975 2971 2968 2965 2959 2955 2953 2950 2949 2946 2942 2938 2933 2928 2928 2921 2918 2920 2919 2917 2914 2911
3082 3078 3073 3068 3063 3059 3054 3050 3044 3037 3031 3025 3020 3016 3010 3006 3001 2999 2995 2992 2988 2985 2982 2981 2976 2972 2967 2962 2961 2956 2951 2946 2945 2942 2939 2937 2934 2932 2931 2925 2925 2921 2919 2916 2915 2913 2913
3078 3074 3069 3065 3061 3056 3051 3046 3041 3035 3029 3024 3018 3012 3008 3006 3001 2997 2993 2990 2986 2981 2978 2975 2971 2969 2966 2960 2953 2950 2947 2941 2937 2936 2936 2935 2927 2925 2920 2920 2922 2918 2916 2914 2910 2909 2911
3075 3071 3067 3063 3058 3053 3048 3043 3038 3032 3026 3022 3017 3011 3005 3002 2997 2993 2990 2986 2983 2981 2978 2973 2968 2962 2960 2957 2954 2943 2942 2937 2932 2929 2927 2926 2920 2919 2911 2915 2916 2915 2913 2914 2910 2909 2913
3072 3068 3064 3060 3055 3050 3044 3038 3032 3027 3022 3016 3012 3008 3001 2999 2994 2989 2986 2982 2979 2977 2974 2971 2965 2958 2954 2951 2946 2940 2935 2930 2928 2925 2921 2919 2916 2915 2909 2911 2910 2914 2918 2916 2915 2917 2919
3069 3065 3061 3056 3051 3046 3040 3034 3029 3023 3018 3013 3007 3002 2997 2990 2988 2985 2982 2978 2975 2973 2970 2966 2962 2956 2951 2944 2939 2934 2928 2926 2925 2923 2921 2918 2914 2912 2908 2907 2912 2923 2921 2919 2918 2919 2922
3066 3062 3057 3053 3047 3042 3036 3031 3025 3019 3014 3009 3003 2997 2992 2985 2983 2981 2977 2972 2970 2967 2964 2962 2957 2953 2947 2941 2934 2928 2926 2926 2924 2922 2921 2918 2915 2911 2909 2914 2922 2923 2922 2922 2922 2924 2923
3063 3058 3053 3048 3043 3037 3031 3025 3020 3015 3007 3003 2998 2993 2988 2983 2980 2975 2971 2967 2964 2961 2957 2954 2953 2949 2945 2940 2935 2932 2929 2928 2925 2922 2921 2919 2915 2914 2912 2912 2921 2923 2920 2920 2921 2924 2923
3059 3054 3049 3044 3038 3032 3026 3020 3014 3007 3002 2996 2990 2987 2982 2980 2975 2970 2969 2964 2959 2957 2954 2950 2947 2945 2942 2939 2936 2934 2932 2930 2927 2924 2917 2915 2913 2914 2913 2915 2922 2921 2920 2920 2923 2929 2920
3055 3050 3045 3039 3033 3027 3021 3014 3008 3002 2996 2991 2985 2981 2979 2977 2972 2968 2965 2962 2959 2955 2953 2951 2948 2944 2940 2939 2937 2936 2934 2932 2930 2929 2926 2925 2921 2919 2919 2919 2924 2922 2922 2923 2924 2920 2919
3051 3046 3040 3034 3028 3022 3016 3009 3003 2997 2991 2986 2981 2976 2973 2972 2969 2965 2963 2961 2958 2955 2953 2950 2949 2945 2942 2940 2939 2936 2935 2933 2931 2931 2930 2930 2929 2928 2928 2927 2924 2923 2922 2921 2920 2919 2917
Wind_Speed
11 13 14 16 17 18 19 20 21 22 23 24 25 26 27 28 29 27 26 26 26 27 29 30 31 32 34 33 27 29 31 30 29 30 27 31 41 42 43 38 37 48 43 42 39 39 36
14 14 15 17 18 18 19 21 24 26 28 30 31 31 31 31 29 28 27 25 25 26 27 28 28 30 31 35 27 25 26 25 23 29 31 32 33 29 32 33 35 43 40 43 43 43 41
14 15 16 16 17 20 21 24 25 26 27 28 29 29 29 29 27 26 26 27 27 25 23 24 27 29 29 24 31 29 28 29 29 27 34 33 33 35 36 37 40 41 45 44 43 42 43
13 14 15 16 18 20 22 24 26 28 28 28 28 26 27 27 27 25 26 26 26 27 30 32 28 32 34 27 24 23 23 25 28 28 29 35 37 38 43 43 39 37 39 46 52 48 46
14 15 18 19 20 22 23 25 26 27 27 26 27 26 25 26 25 26 27 28 28 29 32 31 35 31 27 19 19 23 20 17 19 23 29 30 34 41 41 37 36 40 43 48 46 42 35
15 17 19 20 21 23 25 27 28 27 26 25 26 27 28 30 30 30 29 32 32 32 30 36 33 26 26 34 33 34 34 30 28 26 28 30 37 43 47 42 49 43 48 48 41 35 38
17 19 20 22 23 25 27 29 29 27 26 26 27 30 31 35 37 37 34 34 37 35 33 34 34 36 31 36 33 29 31 29 29 31 33 32 41 56 55 55 57 49 30 41 43 36 30
19 20 21 24 26 27 28 27 27 28 29 30 31 33 34 34 37 39 40 39 38 40 52 26 22 19 21 24 22 21 20 25 29 35 32 35 52 49 48 48 52 54 57 63 53 44 38
20 21 24 26 27 28 28 28 29 31 32 35 36 36 33 35 35 38 38 38 38 35 40 25 10 12 12 13 17 12 19 22 25 29 34 41 35 15 47 48 50 53 57 53 53 38 37
20 23 25 27 29 30 30 29 31 33 36 36 36 37 42 35 37 34 35 33 30 28 24 11 6 6 11 14 10 17 15 20 25 27 31 33 35 43 39 36 33 50 47 48 47 26 19
22 25 27 29 29 30 32 33 33 34 36 38 40 40 40 43 39 32 30 26 25 20 5 9 8 10 6 11 12 6 10 15 23 26 21 26 16 14 22 38 36 48 29 35 35 38 34
24 27 28 29 30 31 33 36 36 36 35 38 40 40 37 37 34 32 32 24 13 6 6 7 8 15 20 17 18 14 15 15 23 27 32 42 44 40 32 19 11 20 32 39 27 27 12
26 27 28 29 30 32 34 35 35 36 38 39 39 39 40 36 29 31 19 15 7 2 8 13 22 33 25 23 20 25 28 27 20 18 17 24 21 28 19 20 28 38 33 5 10 10 13
27 28 28 29 31 32 34 35 36 38 38 38 39 40 36 32 35 25 19 6 2 8 14 25 31 32 17 24 30 28 29 23 12 15 21 13 15 12 6 23 19 25 29 16 13 9 10
28 28 28 30 30 32 33 34 36 38 37 36 38 38 27 33 29 25 12 6 2 14 21 27 31 15 19 28 25 28 29 7 16 23 16 10 10 25 29 22 18 13 23 35 38 37 7
28 27 29 30 31 32 34 35 35 35 36 37 37 35 30 31 24 25 19 8 10 16 22 23 19 13 26 27 21 25 16 14 17 14 22 15 17 11 21 24 13 18 19 11 26 11 12
27 28 29 30 32 33 33 33 33 33 34 33 34 32 29 24 23 26 24 12 13 14 15 15 13 20 18 21 25 25 10 23 13 21 25 19 9 28 14 11 28 25 10 12 16 8 7
27 27 27 29 29 30 32 33 33 33 32 31 32 28 28 21 20 24 20 16 14 17 16 15 18 20 17 20 29 25 18 19 22 19 27 13 18 12 30 16 11 4 6 9 2 6 8
25 25 26 26 27 29 30 32 34 35 36 36 34 27 26 21 23 24 20 16 17 19 19 21 20 12 17 23 16 17 20 25 9 24 19 28 10 11 18 9 12 25 23 15 10 7 4
23 25 24 25 27 28 29 31 33 34 34 35 36 29 26 21 23 23 24 21 20 20 18 18 15 20 24 26 20 23 23 22 28 25 16 11 15 15 12 25 24 22 22 10 6 6 5
22 21 22 24 26 28 30 31 32 32 33 35 33 29 27 27 21 21 21 19 19 23 28 20 17 24 23 26 32 20 29 30 26 21 14 19 25 22 26 26 20 15 8 6 6 1 4
19 20 22 25 27 29 31 32 29 31 33 32 29 27 28 26 26 23 21 20 19 23 23 21 26 30 23 24 21 34 31 29 32 35 35 33 27 21 32 20 15 6 6 10 18 20 18
18 20 23 26 28 30 32 32 33 35 33 32 30 27 29 29 29 27 24 20 22 23 24 28 24 28 27 27 30 32 30 30 29 25 20 22 20 12 13 11 12 4 13 15 16 11 9
18 21 25 27 28 31 31 33 34 34 34 32 31 30 29 33 30 29 26 24 24 25 29 29 22 22 30 30 24 20 12 12 3 8 12 13 17 14 9 8 3 9 8 15 15 13 12
20 24 27 28 30 31 32 34 35 35 34 33 31 29 27 32 30 31 29 26 27 26 29 27 29 24 27 24 26 14 9 7 6 11 10 19 13 8 3 8 10 3 4 4 3 6 6
23 26 28 29 30 32 35 36 36 36 37 35 30 28 24 25 30 29 30 28 26 26 34 36 25 26 19 23 16 7 4 8 7 13 13 17 11 5 3 4 2 5 6 5 3 4 2
24 26 28 30 33 35 37 39 39 38 35 33 29 25 21 19 26 20 28 12 15 28 31 29 29 19 23 13 8 6 6 13 9 14 22 24 23 14 10 5 5 10 2 4 3 4 5
24 27 30 33 35 37 38 36 35 34 34 31 28 22 18 15 24 24 25 36 26 22 23 25 22 21 12 11 6 6 6 10 7 10 13 13 13 10 7 3 2 10 2 3 3 7 10
25 29 32 34 36 35 35 34 33 33 32 30 25 20 16 13 22 26 22 18 17 21 22 21 18 16 10 11 12 5 12 7 11 5 11 8 10 8 7 3 5 8 6 5 7 10 11
Wind_Direction
335 337 338 340 340 342 341 342 343 342 341 338 335 333 328 324 322 319 313 307 304 301 300 298 295 290 287 283 287 284 279 277 270 266 259 249 240 242 242 246 250 248 254 256 259 260 258
343 345 344 343 343 345 349 351 350 347 344 341 339 337 332 332 335 334 329 325 319 313 310 309 306 300 298 292 286 276 274 270 262 252 250 237 229 235 248 253 254 259 261 259 257 256 258
346 342 341 343 346 349 352 351 348 345 342 338 335 333 332 334 337 339 339 339 336 333 327 320 312 307 306 314 289 285 281 273 264 253 239 236 236 239 249 256 255 254 257 253 249 249 252
338 334 336 342 347 350 349 350 345 342 339 337 335 335 333 334 335 336 334 331 331 327 325 324 318 314 308 299 292 287 275 268 261 254 244 237 241 249 250 253 250 250 251 252 253 251 256
336 336 341 346 348 347 347 344 341 340 340 341 337 339 333 332 334 331 330 326 325 326 324 320 315 312 307 295 284 285 276 269 262 247 239 237 233 238 239 238 243 240 247 247 252 253 258
335 337 342 341 342 345 344 343 341 341 343 343 339 336 334 330 330 328 327 322 319 320 324 320 312 308 298 294 288 281 277 276 266 258 244 234 233 234 234 224 231 230 236 246 250 254 258
334 339 340 338 341 342 343 342 341 343 344 341 336 333 333 330 329 329 328 323 325 320 328 317 304 294 293 292 288 287 274 269 260 251 244 235 230 233 238 238 247 244 248 253 257 261 257
336 336 335 336 338 340 341 343 343 341 339 335 334 334 334 331 330 330 330 330 327 325 326 320 308 287 290 292 300 296 274 257 255 253 245 237 240 248 247 244 244 245 251 256 262 260 258
332 333 335 336 336 338 341 345 342 338 336 333 335 335 332 332 332 331 329 326 324 319 321 324 309 288 297 295 308 309 264 262 257 255 247 245 248 292 244 247 244 245 247 253 257 262 261
331 334 334 335 338 340 341 342 340 337 335 334 335 337 333 338 334 333 327 324 320 311 313 312 311 321 301 306 322 320 313 261 251 255 251 260 271 257 251 255 248 252 254 256 256 253 247
333 333 334 336 339 340 339 339 339 337 337 337 338 339 337 336 336 334 331 321 310 313 330 313 299 260 334 341 315 315 327 274 270 264 252 248 259 278 270 262 254 260 266 263 263 254 254
333 335 335 338 340 339 337 338 338 338 340 339 338 339 342 339 338 335 330 313 308 291 250 292 277 289 300 306 317 290 287 291 274 267 263 266 265 265 267 279 246 277 277 261 263 250 225
334 335 337 338 338 338 338 337 338 339 341 340 342 345 343 343 342 338 335 316 303 225 304 318 317 325 339 323 319 322 323 326 335 334 328 311 302 274 278 293 269 270 266 246 232 230 243
335 337 337 337 338 338 337 339 340 342 343 347 349 348 350 345 351 354 353 347 162 319 316 320 329 328 322 335 335 337 341 339 315 326 329 350 318 325 275 327 301 272 256 227 251 238 245
335 335 335 336 337 339 339 341 344 346 348 353 353 354 344 356 5 14 22 59 36 343 323 324 323 325 331 331 340 332 337 338 335 341 5 333 286 292 305 303 311 310 247 251 247 254 226
333 333 334 337 339 339 343 346 347 350 352 352 355 357 356 6 13 20 32 62 343 323 315 322 332 316 322 332 336 330 325 329 309 312 338 325 298 333 315 311 300 299 315 279 223 225 230
333 334 336 338 340 343 345 348 350 353 352 352 354 357 359 0 8 7 33 31 10 352 328 338 332 316 315 332 330 324 292 322 333 317 312 323 305 316 331 311 315 302 326 342 320 292 247
332 334 336 339 344 347 348 348 349 350 349 349 354 357 357 351 359 11 10 0 356 358 350 338 325 324 319 316 328 320 301 313 322 297 308 309 312 286 307 326 318 336 342 4 20 313 314
329 333 337 343 347 348 348 348 346 345 345 349 351 356 354 351 359 357 352 351 351 348 352 345 337 344 331 320 329 320 308 314 318 324 306 305 285 310 318 296 297 331 332 313 323 296 326
330 335 339 344 346 346 347 345 343 342 345 345 345 351 352 353 351 350 345 342 338 345 344 339 341 342 337 328 327 313 315 310 315 320 327 287 278 269 259 279 297 310 317 300 277 223 78
330 335 343 345 343 344 343 341 339 341 342 341 347 344 347 340 347 343 340 341 343 342 339 338 324 335 328 317 318 316 314 315 318 333 311 298 282 293 286 288 292 277 289 3 92 64 143
330 339 343 341 342 340 338 336 338 339 338 340 340 338 333 339 339 336 342 338 342 339 338 339 322 323 320 307 299 303 311 310 303 310 308 302 277 280 288 301 269 135 89 98 98 95 103
333 339 338 339 338 337 337 338 337 336 338 338 333 332 330 330 331 331 333 326 329 340 335 339 326 319 324 320 307 305 305 302 293 299 315 292 273 268 273 300 238 91 33 61 83 108 135
333 335 336 336 336 337 337 335 333 333 334 333 332 329 323 318 322 322 324 324 325 328 325 334 335 324 324 321 322 329 304 313 340 1 9 320 307 254 289 301 114 148 82 67 77 86 96
329 331 333 335 335 336 335 332 331 330 329 330 328 322 316 309 316 322 316 316 320 324 324 331 337 332 331 323 333 341 4 0 330 346 356 355 354 320 47 58 120 161 268 296 173 69 97
327 331 332 334 335 335 332 330 329 327 325 325 323 319 317 306 317 317 312 306 308 324 328 328 334 334 336 335 343 331 313 1 326 328 324 340 335 1 6 116 162 347 287 216 215 198 76
328 330 333 335 334 332 330 328 327 327 327 327 325 323 319 318 294 292 309 330 327 324 326 331 337 347 339 343 329 330 332 346 340 340 341 354 353 15 28 83 111 7 299 221 198 270 324
329 334 335 334 332 331 330 330 331 329 331 332 328 325 316 309 300 301 296 313 326 331 340 339 347 337 345 351 342 352 316 344 336 359 354 356 357 13 4 70 40 25 82 231 272 307 314
335 335 334 333 332 333 333 332 332 335 335 336 335 331 319 294 277 289 308 341 353 344 341 344 342 335 319 323 327 321 300 302 343 353 5 353 12 351 359 12 342 353 1 343 315 308 304